Погода в Сосонке

Россия / Псковская область     57°25′26″N   29°59′21″E
темп.,
°C
ветер,
м/с
пор.,
м/с
влажн.,
%
обл.,
%
осадки,
мм/ч
давл.,
гПа
погр.,
м
8 декабря, ср
ср800:00−21з2210031 0.0 102113
03:00−21з2210039 0.0 102210
06:00−21юз1110049 0.0 10229
09:00−21юз111006 0.0 10249
12:00−14юз12935 0.0 102549
15:00−13ююв1196100 0.0 102410
18:00−18ююз119940 0.0 10269
21:00−19ююз0010017 0.0 10269
9 декабря, чт
чт900:00−20ю1110049 0.0 10279
03:00−20всв0010030 0.0 10289
06:00−20ююв0010031 0.0 10289
09:00−20всв0010037 0.0 10299
12:00−13в25948 0.0 1029109
15:00−12всв12956 0.0 102930
18:00−16в259842 0.0 103056
21:00−15вюв26969 0.0 102984
10 декабря, пт
пт1000:00−15вюв27948 0.0 1029104
03:00−14вюв39918 0.0 1029143
06:00−12вюв412855 0.0 1028242
09:00−11вюв414845 0.0 1027303
12:00−9юв516814 0.0 1027445
15:00−7вюв516785 0.0 1025464
18:00−7вюв515805 0.0 1025429
21:00−7вюв61682100 0.0 1024453
11 декабря, сб
сб1100:00−5вюв61583100 0.0 1024498
03:00−5вюв61584100 0.0 1024502
06:00−5вюв61685100 0.0 1023475
09:00−3вюв61687100 0.1 1023533
12:00−2юв61687100 0.0 1023536
15:00−1юв61588100 0.0 1022501
18:00−2юв61589100 0.0 1022502
21:00−2юв61594100 0.4 1022551
12 декабря, вс
вс1200:00−1юв61595100 1.7 1022587
03:00+1ююв61495100 1.7 1023581
06:00+1ююв61399100 0.0 1023791
09:00+1ю4997100 0.1 1026370
12:00+1ююв4997100 0.0 1027276
15:00+1ююв2599100 0.0 1027175
18:00+1вюв26100100 0.6 1026286
21:000вюв39100100 3.3 1024384